Regional Weather Roundup
Issued by NWS

Home | Current Version | Previous Version | Text Only | Print | Product List | Glossary Off
Versions: 1 2 3 4 5 6 7 8 9 10 11 12 13 14 15 16 17 18 19 20 21 22 23 24 25 26 27 28 29 30 31 32 33 34 35 36 37 38 39 40 41 42 43 44 45 46 47 48 49 50

000
ASUS43 KMPX 220401
RWRMN
WEATHER ROUNDUP FOR MINNESOTA
NATIONAL WEATHER SERVICE TWIN CITIES/CHANHASSEN MN
1100 PM CDT TUE OCT 21 2014


NOTE: "FAIR" INDICATES FEW OR NO CLOUDS BELOW 12,000 FEET WITH NO
SIGNIFICANT WEATHER AND/OR OBSTRUCTIONS TO VISIBILITY. N/A MEANS
CURRENT SKY AND/OR WEATHER CONDITIONS ARE NOT AVAILABLE.

MNZ060>063-068>070-220500-
   Twin Cities Metro

CITY           SKY/WX    TMP DP  RH WIND       PRES   REMARKS
TWIN CITIES    CLEAR     47  37  68 SE13      30.18R
ST PAUL        CLEAR     47  39  74 SE9       30.20R
CRYSTAL        CLEAR     50  38  63 SE8       30.16S
BLAINE         CLEAR     46  39  76 SE8       30.17S
LAKEVILLE      CLEAR     43  37  81 SE5       30.18S
EDEN PRAIRIE   CLEAR     47  39  74 SE12      30.16R
SOUTH ST PAUL  CLEAR     48  37  67 SE6       30.19R
LAKE ELMO      FAIR      45  37  76 SE6       30.20R
$$
MNZ001>005-007-008-013>017-022>024-027-028-220500-
   Northwest Minnesota

CITY           SKY/WX    TMP DP  RH WIND       PRES   REMARKS
BEMIDJI        CLEAR     47  38  70 SE13G18   30.04S
HALLOCK        CLEAR     54  39  58 S21       29.85S
ROSEAU         CLEAR     52  39  62 S18G25    29.92F
WARROAD        CLEAR     48  39  71 S14       29.95S
THIEF RVR FALL CLEAR     54  37  54 SE17G23   29.93S
CROOKSTON      CLEAR     54  41  62 S25G31    29.91S
FOSSTON        CLEAR     50  37  62 SE17G25   29.97S
DETROIT LAKES  FAIR      50  41  71 SE17      30.00F
MOORHEAD       CLEAR     57  43  58 SE24G30   29.93S
PARK RAPIDS    CLEAR     47  38  71 SE16      30.05S
MAHNOMEN       FAIR      51  39  63 SE17G24   29.96S
$$
MNZ006-009>011-018-025>026-220500-
   North Central Minnesota

CITY           SKY/WX    TMP DP  RH WIND       PRES   REMARKS
BAUDETTE       CLEAR     44  36  73 SE10G22   30.00F
FLAG ISLAND    CLEAR     46  39  76 S31       29.95S
INTL FALLS     CLEAR     39  34  82 SE10      30.09S
WASKISH        CLEAR     46  37  71 SE15      30.02F
BIG FORK       CLEAR     43  36  75 SE8G16    30.12S
LONGVILLE      CLEAR     45  37  76 SE8       30.10S
GRAND RAPIDS   CLEAR     39  34  81 SE7       30.14R
CRANE LAKE     CLEAR     34  32  93 SE3       30.16F
ORR            CLEAR     36  32  87 SE9G18    30.11F
COOK           CLEAR     37  34  87 SE8       30.15F
WALKER         FAIR      48  38  67 SE9       30.07S
$$
MNZ012-019>021-037-220500-
   Northeast Minnesota

CITY           SKY/WX    TMP DP  RH WIND       PRES   REMARKS
DULUTH         PTCLDY    39  36  89 SE7       30.20S
ELY            CLEAR     37  36  93 SE7       30.19S
HIBBING        CLEAR     36  33  89 SE7       30.17S
EVELETH        CLEAR     36  36 100 SE6       30.19S
DULUTH HARBOR  FAIR      41  37  87 E3        30.23S
TWO HARBORS    CLEAR     43  30  61 NE3       30.21S
SILVER BAY     PTCLDY    43  39  87 E6        30.22S
GRAND MARAIS     N/A     43  38  82 E12       30.27S
G MARAIS ARPRT CLOUDY    34  30  86 E7        30.24S WCI  28
$$
MNZ029>031-032-039>041-046>048-054>057-064-220500-
   West Central Minnesota

CITY           SKY/WX    TMP DP  RH WIND       PRES   REMARKS
FERGUS FALLS   CLEAR     54  37  54 SE20G28   30.00S
WHEATON        CLEAR     52  39  62 SE18G25   29.98S
MORRIS         CLEAR     54  41  62 SE20      30.01R
ALEXANDRIA     CLEAR     49  40  71 SE15      30.06S
ELBOW LAKE     FAIR      52  40  65 SE18      30.00S
WADENA         CLEAR     46  37  71 SE13G20   30.05S
GLENWOOD       CLEAR     46  41  81 SE12      30.06F
APPLETON       CLEAR     57  39  51 SE14G23   30.01S
BENSON         CLEAR     52  41  66 S14       30.04S
ORTONVILLE     CLEAR     54  41  62 SE14      29.99F
MADISON        CLEAR     57  43  58 SE14      30.01S
WILLMAR        FAIR      52  39  62 SE16      30.09S
$$
MNZ033>034-036-042>043-049>051-058-059-220500-
   Central Minnesota

CITY           SKY/WX    TMP DP  RH WIND       PRES   REMARKS
ST CLOUD       CLEAR     50  38  63 SE9       30.13S
SAUK CENTRE    FAIR      49  40  72 SE12      30.09S
PAYNESVILLE    CLEAR     47  39  73 E13       30.10S
AITKIN         CLEAR     48  37  66 SE9       30.12F
PINE RIVER     CLEAR     46  39  76 SE10      30.12F
BRAINERD       CLEAR     46  38  73 SE9       30.12F
STAPLES        CLEAR     48  37  66 SE12      30.08S
LONG PRAIRIE   FAIR      46  37  71 SE10      30.09S
LITTLE FALLS   CLEAR     45  36  70 SE12G18   30.11S
LITCHFIELD     CLEAR     50  41  71 SE10      30.11F
BUFFALO        CLEAR     48  38  68 SE7       30.16S
MAPLE LAKE     CLEAR     49  42  76 SE7       30.14S
$$
MNZ037-044-045-052-053-220500-
   East Central Minnesota

CITY           SKY/WX    TMP DP  RH WIND       PRES   REMARKS
PRINCETON      CLEAR     45  37  76 E7        30.15F
MORA           CLEAR     41  34  75 SE5       30.19S
CAMBRIDGE      CLEAR     46  36  66 SE7       30.15S
RUSH CITY      PTCLDY    41  35  79 SE5       30.18S
MOOSE LAKE     CLEAR     36  34  93 NE3       30.17S
HINCKLEY       FAIR      43  36  75 SE5       30.18S
CLOQUET        CLEAR     37  36  93 E5        30.19S
MCGREGOR       CLEAR     37  36  93 SE6       30.16S
$$
MNZ071>073-080-081-089-090-097-098-220500-
   Southwest Minnesota

CITY           SKY/WX    TMP DP  RH WIND       PRES   REMARKS
MONTEVIDEO     CLEAR     55  41  58 S13G23    30.04S
GRANITE FALLS  CLEAR     52  40  63 SE13G18   30.07S
CANBY          CLEAR     55  43  64 SE9       30.02S
MARSHALL       CLEAR     55  39  54 S16       30.03S
REDWOOD FALLS  CLEAR     52  40  63 SE16      30.08S
OLIVIA         CLEAR     50  39  66 SE9       30.08S
PIPESTONE      CLEAR     55  43  62 S16G22    30.04R
WINDOM         CLEAR     52  39  62 SE15      30.10R
WORTHINGTON    CLEAR     54  41  62 SE12G20   30.09S
JACKSON        CLEAR     50  39  66 SE12G17   30.12R
TRACY          CLEAR     55  42  62 S17G25    30.05S
SLAYTON        CLEAR     51  41  69 SE12      30.07S
$$
MNZ065>067-074>077-082>085-091>093-220500-
   South Central Minnesota

CITY           SKY/WX    TMP DP  RH WIND       PRES   REMARKS
MANKATO        CLEAR     48  36  61 SE13      30.14F
NEW ULM        CLEAR     50  41  71 SE13      30.12R
ST JAMES       CLEAR     50  39  66 SE10      30.13S
FAIRMONT       CLEAR     48  37  66 SE16      30.12F
GLENCOE        CLEAR     48  41  77 SE10      30.13S
FARIBAULT      CLEAR     46  39  76 SE8       30.18S
OWATONNA       CLEAR     46  37  71 SE8       30.18S
WASECA         CLEAR     43  34  70 SE9       30.18S
ALBERT LEA     CLEAR     46  39  76 SE9       30.17S
$$
MNZ078>079-086>088-094>096-220500-
   Southeast Minnesota

CITY           SKY/WX    TMP DP  RH WIND       PRES   REMARKS
ROCHESTER      CLEAR     42  36  79 SE8       30.21S
RED WING       CLEAR     48  39  71 SE12      30.20S
STANTON        CLEAR     47  38  69 SE8       30.17S
DODGE CENTER   CLEAR     43  37  81 SE10      30.19S
WINONA         CLEAR     41  37  87 SE6       30.24S
AUSTIN         CLEAR     43  37  81 SE6       30.19S
PRESTON        CLEAR     42  35  78 SE8       30.22S
$$
ABBREVIATIONS USED IN REMARKS
   TC - TEMPERATURES IN CELSIUS
  WCI - WIND CHILL INDEX
   HX - HEAT INDEX
  VSB - VISIBILITY
$$



USA.gov is the U.S. government's official web portal to all federal, state and local government web resources and services.